Location: Newark
(49.8969°N, 3.3422°E)
Time: 10:27:42
(UTC+00:00)

Courier 1B - All Passes

Search period start: 20 January 2020 00:00
Search period end: 30 January 2020 00:00
Orbit: 962 x 1209 km, 28.3° (Epoch: 19 January)

Date Brightness Start Highest point End Pass type
(mag) Time Alt. Az. Time Alt. Az. Time Alt. Az.
20 Jan - 06:01:19 10° SSW 06:04:50 14° S 06:08:21 10° SSE visible
20 Jan - 07:54:47 10° SSW 07:57:30 12° SSW 08:00:13 10° S daylight
21 Jan - 05:08:14 10° SSW 05:11:18 13° S 05:14:24 10° SSE visible
21 Jan - 07:00:41 10° SSW 07:04:00 13° S 07:07:19 10° SSE visible
22 Jan - 04:15:39 10° S 04:17:48 11° SSE 04:19:58 10° SSE visible
22 Jan - 06:06:56 10° SSW 06:10:28 14° S 06:14:02 10° SSE visible
23 Jan - 05:13:28 10° SSW 05:16:57 14° S 05:20:27 10° SSE visible
23 Jan - 07:07:47 10° SSW 07:09:36 11° SSW 07:11:26 10° S daylight
24 Jan - 04:20:18 10° SSW 04:23:26 13° S 04:26:37 10° SSE visible
24 Jan - 06:13:20 10° SSW 06:16:06 12° S 06:18:53 10° SSE visible
25 Jan - 03:27:30 10° S 03:29:57 12° S 03:32:25 10° SSE visible
25 Jan - 05:19:27 10° SSW 05:22:36 13° S 05:25:45 10° SSE visible
26 Jan - 02:35:58 10° S 02:36:30 10° SSE 02:37:01 10° SSE visible
26 Jan - 04:25:54 10° SSW 04:29:05 13° S 04:32:19 10° SSE visible
27 Jan - 03:32:39 10° SSW 03:35:36 13° S 03:38:35 10° SSE visible
27 Jan - 05:26:40 10° SSW 05:28:14 11° SSW 05:29:48 10° S visible
28 Jan - 02:39:44 10° SSW 02:42:08 12° S 02:44:34 10° SSE visible
28 Jan - 04:32:24 10° SSW 04:34:45 12° S 04:37:07 10° S visible
29 Jan - 01:47:34 10° S 01:48:42 10° SSE 01:49:51 10° SSE night (unlit)
29 Jan - 03:38:41 10° SSW 03:41:16 12° S 03:43:54 10° SSE visible
